This demonstration page uses our WeatherBlox Daily Observations layout. Learn more.

Left ArrowRight Arrow

Hourly Observations for September 1, 2018

Temp ( °F °C ) Dew Point ( °F °C ) Humidity (%) Winds ( mph kmh ) Pressure ( in mb ) Visibility ( mi km ) Precip ( " mm )
12:53 am 00:53 Clear 73 22.8 72 22.2 96 96 W 5 7 29.76 1008 7 11 0.00 0.00
1:12 am 01:12 Partly Cloudy with Nearby Thunderstorms 74 23.3 73 22.8 97 97 N 10 17 29.71 1006 8 13 0.00 0.00
1:21 am 01:21 Mostly Cloudy with Thunderstorms 74 23.3 73 22.8 97 97 SW 14 22 29.80 1009 7 11 0.03 0.76
1:41 am 01:41 Windy with Storms Likely 70 21.1 67 19.4 90 90 NW 36 57 29.85 1011 6 10 0.10 2.54
1:46 am 01:46 Windy with Storms Likely 70 21 66 19 88 88 WNW 28 44 29.85 1011 7 11 0.00 0.00
1:53 am 01:53 Windy with Storms Likely 69 20.6 66 18.9 90 90 WNW 23 37 29.88 1012 10 16 0.11 2.79
2:34 am 02:34 Partly Cloudy with Nearby Thunderstorms 70 21.1 60 15.6 71 71 NNW 25 41 29.77 1008 10 16 0.00 0.03
2:48 am 02:48 Mostly Clear 70 21 61 16 73 73 NNW 20 31 29.74 1007 10 16 0.00 0.00
2:53 am 02:53 Clear 70 21.1 59 15 68 68 N 17 28 29.79 1009 10 16 0.00 0.03
3:53 am 03:53 Partly Cloudy 72 22.2 59 15 64 64 NNE 6 9 29.76 1008 10 16 0.00 0.00
4:53 am 04:53 Clear 70 21.1 60 15.6 71 71 SW 9 15 29.78 1009 10 16 0.00 0.03
5:53 am 05:53 Clear 67 19.4 62 16.7 84 84 NNW 5 7 29.82 1010 10 16 0.00 0.00
6:53 am 06:53 Clear 69 20.6 61 16.1 76 76 SW 6 9 29.83 1010 10 16 0.00 0.00
7:53 am 07:53 Cloudy with Light Rain 70 21.1 62 16.7 76 76 NW 16 26 29.81 1010 10 16 0.04 1.02
8:53 am 08:53 Mostly Sunny 71 21.7 63 17.2 76 76 ESE 5 7 29.87 1012 10 16 0.00 0.03
9:53 am 09:53 Mostly Cloudy 72 22.2 64 17.8 76 76 Calm 29.89 1012 10 16 0.01 0.25
10:53 am 10:53 Mostly Sunny 75 23.9 65 18.3 71 71 WNW 7 11 29.90 1013 10 16 0.00 0.00
11:53 am 11:53 Sunny 78 25.6 66 18.9 67 67 W 7 11 29.90 1013 10 16 0.00 0.00
12:53 pm 12:53 Partly Cloudy 79 26.1 67 19.4 67 67 NW 5 7 29.90 1012 10 16 0.00 0.00
1:53 pm 13:53 Partly Cloudy 79 26.1 68 20 69 69 N 9 15 29.87 1011 10 16 0.00 0.03
2:53 pm 14:53 Sunny 82 27.8 66 18.9 58 58 E 5 7 29.87 1011 10 16 0.00 0.00
3:53 pm 15:53 Sunny 82 27.8 66 18.9 58 58 S 7 11 29.87 1011 10 16 0.00 0.00
4:53 pm 16:53 Sunny 83 28.3 65 18.3 55 55 SE 5 7 29.85 1011 10 16 0.00 0.00
5:53 pm 17:53 Sunny 81 27.2 66 18.9 61 61 SE 5 7 29.85 1011 10 16 0.00 0.00
6:53 pm 18:53 Mostly Cloudy with Light Rain 77 25 70 21.1 79 79 S 6 9 29.87 1011 10 16 0.03 0.76
7:53 pm 19:53 Cloudy 74 23.3 66 18.9 76 76 SE 13 20 29.83 1010 10 16 0.00 0.03
8:53 pm 20:53 Mostly Cloudy with Light Rain 72 22.2 66 18.9 82 82 S 10 17 29.85 1011 10 16 0.01 0.25
9:53 pm 21:53 Mostly Clear 70 21.1 64 17.8 82 82 S 16 26 29.86 1011 10 16 0.01 0.25
10:53 pm 22:53 Mostly Clear 69 20.6 63 17.2 81 81 SSE 12 19 29.88 1012 10 16 0.00 0.00
11:53 pm 23:53 Mostly Cloudy with Light Rain 68 20 64 17.8 87 87 S 12 19 29.88 1012 10 16 0.00 0.03

Powered by AerisWeather